[[{"header":{"parameterUnit":"m.s-1","parameterCategory":1,"la1":30.2991,"la2":30.254,"lo1":-89.0895,"lo2":-89.0444,"dy":0.0017,"dx":0.0017,"nx":28,"ny":28,"refTime":"2024-12-08T09:00:00:Z","depth":0,"parameterNumber":2,"parameterNumberName":"U-component_of_WINDS"},"data":[0,0,0,0,0,0,0,0,0,0,0,0,0,0,0,0,0,0,0,0,0,0,0,0,0,0,0,0,0,0,0,0,0,0,0,0,0,0,0,0,0,0,0,0,0,0,0,0,0,0,0,0,0,0,0,0,0,0,-2.144,-2.144,0,-2.1434,-2.1434,-2.1434,-2.1322,-2.1319,-2.1317,-2.1314,-2.131,-2.1313,-2.1315,0,0,0,0,0,0,0,0,0,0,0,0,0,-2.1357,-2.1359,-2.144,-2.144,-2.144,-2.1434,-2.1434,-2.1434,-2.1323,-2.1319,-2.1316,-2.1313,-2.1309,-2.1312,-2.1315,0,0,0,0,0,0,0,0,0,0,0,0,0,-2.1376,-2.1359,-2.144,-2.1384,-2.1379,-2.1434,-2.1434,-2.1434,-2.1324,-2.1319,-2.1315,-2.1311,-2.1308,-2.1312,-2.1316,-2.1425,0,0,-2.1328,-2.1329,0,0,0,0,0,0,0,0,-2.1375,-2.1379,-2.1392,-2.1388,-2.1382,-2.1374,-2.1403,-2.1431,-2.1325,-2.1345,-2.1314,-2.1309,-2.1335,-2.1337,-2.1345,-2.1425,-2.1425,-2.1328,-2.133,-2.1332,-2.1333,0,0,0,0,0,0,0,-2.1374,-2.1379,-2.1438,-2.1392,-2.1386,-2.1359,-2.1357,-2.1408,-2.1364,-2.1342,-2.1334,-2.1335,-2.1332,-2.1341,-2.1344,-2.1425,-2.1328,-2.1331,-2.1334,-2.1335,-2.1594,-2.1598,0,0,0,0,0,0,-2.138,-2.1378,-2.1438,-2.1437,-2.1368,-2.1364,-2.1362,-2.1381,-2.1363,-2.1356,-2.1339,-2.133,-2.1337,-2.134,-2.1343,-2.147,-2.1332,-2.1335,-2.1338,-2.159,-2.1595,-2.16,0,0,0,0,0,0,-2.1379,-2.1386,-2.1438,-2.1406,-2.141,-2.137,-2.1393,-2.1383,-2.1393,-2.136,-2.1352,-2.1357,-2.1334,-2.1338,-2.1405,-2.1468,-2.1337,-2.1341,-2.1584,-2.1591,-2.1598,-2.1725,0,0,0,0,0,0,-2.1377,-2.1387,-2.1428,-2.1407,-2.1412,-2.15,-2.1397,-2.1386,-2.14,-2.1388,-2.1375,-2.1369,-2.1331,-2.14,-2.1409,-2.1471,-2.1344,-2.1578,-2.1587,-2.1595,-2.1715,-2.1735,-2.1753,0,0,0,0,0,-2.1374,-2.1464,-2.143,-2.1438,-2.1463,-2.1504,-2.1507,-2.1461,-2.1405,-2.1446,-2.1425,-2.1369,-2.146,-2.1408,-2.1417,-2.1482,-2.1574,-2.1585,-2.1595,-2.1706,-2.1731,-2.1752,0,0,0,0,0,0,-2.1494,-2.1461,-2.1423,-2.1509,-2.151,-2.1485,-2.1536,-2.1488,-2.1506,-2.1495,-2.1437,-2.1435,-2.1511,-2.1503,-2.1446,-2.1586,-2.1507,-2.152,-2.1589,-2.1612,-2.1631,-2.1632,-2.1347,0,0,0,0,0,-2.153,-2.1566,-2.1535,-2.1614,-2.1617,-2.1577,-2.1593,-2.1557,-2.1556,-2.1556,-2.154,-2.1542,-2.157,-2.1591,-2.1616,-2.1713,-2.1708,-2.1761,-2.178,-2.1796,-2.1808,-2.1858,-2.1881,-2.1634,-2.1634,-2.1634,0,0,-2.1606,-2.1592,-2.1619,-2.1638,-2.1635,-2.1674,-2.1578,-2.1623,-2.1651,-2.1563,-2.1626,-2.1614,-2.1612,-2.1695,-2.1731,-2.169,-2.1875,-2.1809,-2.1822,-2.1825,-2.1871,-2.1895,-2.1916,-2.1641,-2.164,-2.1638,0,0,-2.1764,-2.1757,-2.1822,-2.182,-2.1816,-2.1788,-2.1804,-2.1786,-2.1775,-2.1836,-2.1771,-2.1804,-2.1855,-2.1856,-2.1863,-2.2021,-2.197,-2.203,-2.2129,-2.2179,-2.2199,-2.2216,-2.2272,-2.2292,-2.2042,-2.2042,-2.2043,0,-2.1859,-2.1914,-2.1861,-2.1911,-2.1921,-2.1842,-2.1907,-2.1908,-2.1913,-2.1923,-2.1877,-2.1938,-2.1932,-2.2014,-2.2052,-2.2061,-2.2077,-2.2032,-2.22,-2.2216,-2.2231,-2.2284,-2.2306,-2.205,-2.2049,-2.2048,-2.2047,0,-2.2031,-2.207,-2.2123,-2.2128,-2.2145,-2.2202,-2.2158,-2.2181,-2.2144,-2.2121,-2.2185,-2.2174,-2.2194,-2.2211,-2.2175,-2.2288,-2.2263,-2.221,-2.2129,-2.2263,-2.2312,-2.2332,-2.206,-2.2058,-2.2055,-2.2054,0,0,-2.2265,-2.2239,-2.226,-2.2261,-2.225,-2.228,-2.2333,-2.2352,-2.2373,-2.2379,-2.2422,-2.2467,-2.2417,-2.2426,-2.2389,-2.2433,-2.2558,-2.2374,-2.2373,-2.2409,-2.2681,-2.2722,-2.2746,-2.2524,-2.2528,-2.2531,-2.2681,0,-2.2418,-2.2507,-2.246,-2.2556,-2.2591,-2.2516,-2.2563,-2.2561,-2.2541,-2.2569,-2.2547,-2.2579,-2.2511,-2.2516,-2.2556,-2.2535,-2.2612,-2.2523,-2.2565,-2.2567,-2.2568,-2.2771,-2.2814,-2.2957,-2.27,-2.2703,-2.2706,0,-2.2607,-2.262,-2.2719,-2.27,-2.2713,-2.2756,-2.2769,-2.2796,-2.2793,-2.2776,-2.2785,-2.2738,-2.2789,-2.2709,-2.2779,-2.272,-2.2734,-2.2726,-2.273,-2.2733,-2.2645,-2.278,-2.3002,-2.3023,-2.2735,-2.2733,-2.2731,0,-2.2768,-2.281,-2.2874,-2.2877,-2.2857,-2.2889,-2.2882,-2.2874,-2.2889,-2.2901,-2.291,-2.2928,-2.2939,-2.2954,-2.2914,-2.2859,-2.2989,-2.2906,-2.2977,-2.2978,-2.3008,-2.3007,-2.3236,-2.3017,-2.3017,-2.3016,-2.3016,0,-2.2943,-2.3007,-2.2946,-2.2985,-2.3054,-2.3,-2.307,-2.3055,-2.3049,-2.3085,-2.3021,-2.3056,-2.3,-2.303,-2.2998,-2.3061,-2.3066,-2.3054,-2.3045,-2.3059,-2.3061,-2.3068,-2.3057,-2.3022,-2.3021,-2.302,-2.3019,0,-2.3135,-2.3097,-2.3162,-2.3137,-2.3132,-2.3184,-2.3163,-2.3199,-2.3174,-2.322,-2.3227,-2.3189,-2.322,-2.3181,-2.3209,-2.3188,-2.3274,-2.325,-2.3275,-2.3268,-2.334,-2.3334,-2.3582,-2.3612,-2.3375,-2.3377,-2.3379,0,-2.325,-2.3296,-2.3276,-2.3295,-2.3292,-2.3323,-2.3337,-2.3285,-2.3303,-2.3302,-2.3338,-2.3364,-2.3382,-2.3435,-2.341,-2.3431,-2.3408,-2.3493,-2.341,-2.3424,-2.3409,-2.3407,-2.3411,-2.351,-2.3513,-2.3515,-2.3517,0,-2.3457,-2.3435,-2.3457,-2.3473,-2.349,-2.3501,-2.3506,-2.3525,-2.3471,-2.3494,-2.3525,-2.3538,-2.3566,-2.3593,-2.3607,-2.36,-2.3551,-2.3543,-2.3561,-2.3577,-2.3589,-2.3583,-2.3321,-2.3538,-2.3536,-2.3534,-2.3533,-2.3532,-2.3613,-2.3651,-2.3642,-2.3669,-2.3667,-2.3673,-2.3705,-2.3684,-2.3708,-2.3726,-2.3694,-2.3733,-2.3728,-2.3742,-2.3741,-2.3771,-2.3734,-2.3759,-2.3766,-2.3773,-2.3784,-2.3584,-2.3773,-2.3773,-2.3772,-2.3771,-2.3771,0,-2.3817,-2.3807,-2.3832,-2.384,-2.3861,-2.3811,-2.3814,-2.3835,-2.387,-2.3869,-2.3887,-2.3923,-2.3948,-2.3924,-2.3945,-2.3973,-2.3951,-2.3981,-2.3978,-2.3977,-2.3816,-2.3799,-2.3998,-2.3998,-2.3998,-2.3998,-2.3998,-2.3998,-2.3925,-2.3986,-2.3964,-2.4023,-2.4013,-2.4049,-2.4056,-2.4061,-2.406,-2.4101,-2.4122,-2.4106,-2.4096,-2.4115,-2.4136,-2.4128,-2.4139,-2.4177,-2.4162,-2.4011,-2.3989,-2.3968,-2.3951,-2.418,-2.418,-2.432,-2.4322,-2.4323]},{"header":{"parameterUnit":"m.s-1","parameterCategory":1,"la1":30.2991,"la2":30.254,"lo1":-89.0895,"lo2":-89.0444,"dy":0.0017,"dx":0.0017,"nx":28,"ny":28,"refTime":"2024-12-08T09:00:00:Z","depth":0,"parameterNumber":3,"parameterNumberName":"V-component_of_WINDS"},"data":[0,0,0,0,0,0,0,0,0,0,0,0,0,0,0,0,0,0,0,0,0,0,0,0,0,0,0,0,0,0,0,0,0,0,0,0,0,0,0,0,0,0,0,0,0,0,0,0,0,0,0,0,0,0,0,0,0,0,-0.9835,-0.9835,0,-0.9852,-0.9852,-0.9852,-0.9865,-0.9865,-0.9866,-0.9866,-0.9885,-0.9885,-0.9886,0,0,0,0,0,0,0,0,0,0,0,0,0,-0.9814,-0.9814,-0.9835,-0.9835,-0.9835,-0.9852,-0.9852,-0.9852,-0.9865,-0.9865,-0.9866,-0.9866,-0.9885,-0.9885,-0.9886,0,0,0,0,0,0,0,0,0,0,0,0,0,-0.9826,-0.9814,-0.9835,-0.9844,-0.9845,-0.9852,-0.9852,-0.9852,-0.9865,-0.9865,-0.9866,-0.9866,-0.9885,-0.9885,-0.9886,-0.9886,0,0,-0.9888,-0.9888,0,0,0,0,0,0,0,0,-0.9825,-0.9827,-0.9842,-0.9843,-0.9844,-0.9857,-0.9852,-0.9864,-0.9865,-0.9857,-0.9866,-0.9866,-0.9876,-0.9877,-0.988,-0.9887,-0.9888,-0.9888,-0.9888,-0.9888,-0.9889,0,0,0,0,0,0,0,-0.9825,-0.9826,-0.9841,-0.9842,-0.9843,-0.9847,-0.9849,-0.9854,-0.9865,-0.9858,-0.9859,-0.9861,-0.9876,-0.9879,-0.988,-0.9888,-0.9888,-0.9888,-0.9889,-0.9889,-0.9894,-0.9894,0,0,0,0,0,0,-0.9822,-0.9825,-0.9841,-0.9842,-0.9835,-0.9847,-0.9849,-0.9852,-0.9865,-0.9867,-0.9861,-0.9861,-0.9878,-0.988,-0.9881,-0.9881,-0.9888,-0.9889,-0.9889,-0.9895,-0.9894,-0.9894,0,0,0,0,0,0,-0.9822,-0.9823,-0.984,-0.9834,-0.9836,-0.9847,-0.9851,-0.9853,-0.9856,-0.9867,-0.9869,-0.9862,-0.9878,-0.988,-0.9884,-0.9882,-0.9889,-0.989,-0.9895,-0.9894,-0.9894,-0.9881,0,0,0,0,0,0,-0.9821,-0.9823,-0.9823,-0.9834,-0.9837,-0.9843,-0.9851,-0.9853,-0.9856,-0.9858,-0.9869,-0.9871,-0.9879,-0.9883,-0.9885,-0.9883,-0.989,-0.9895,-0.9895,-0.9894,-0.9882,-0.988,-0.9879,0,0,0,0,0,-0.982,-0.982,-0.9823,-0.9825,-0.9837,-0.9843,-0.9844,-0.9853,-0.9856,-0.9856,-0.9863,-0.987,-0.9882,-0.9883,-0.9885,-0.9883,-0.9895,-0.9895,-0.9894,-0.9882,-0.988,-0.9879,0,0,0,0,0,0,-0.981,-0.9821,-0.9825,-0.9828,-0.9834,-0.9845,-0.9846,-0.9851,-0.9857,-0.9858,-0.9868,-0.9871,-0.9873,-0.9879,-0.9881,-0.9883,-0.9889,-0.9889,-0.9879,-0.9878,-0.9877,-0.9875,-0.9891,0,0,0,0,0,-0.9808,-0.9811,-0.9821,-0.9823,-0.9825,-0.9835,-0.9838,-0.9843,-0.985,-0.9853,-0.9861,-0.9868,-0.9872,-0.9876,-0.9881,-0.9882,-0.9884,-0.9882,-0.9881,-0.9879,-0.9879,-0.9879,-0.9877,-0.9892,-0.9892,-0.9892,0,0,-0.9804,-0.9811,-0.9812,-0.9821,-0.9826,-0.9829,-0.9837,-0.9841,-0.9843,-0.9854,-0.9858,-0.9863,-0.9871,-0.9874,-0.9875,-0.9878,-0.9875,-0.9879,-0.9878,-0.9878,-0.9878,-0.9877,-0.9875,-0.9892,-0.9892,-0.9892,0,0,-0.9798,-0.9804,-0.9805,-0.981,-0.9817,-0.9823,-0.9823,-0.9832,-0.9836,-0.984,-0.9848,-0.9851,-0.9859,-0.9864,-0.9868,-0.9862,-0.9868,-0.9863,-0.9856,-0.9856,-0.9854,-0.9853,-0.985,-0.9849,-0.9863,-0.9863,-0.9863,0,-0.9793,-0.9797,-0.9805,-0.9807,-0.981,-0.9819,-0.982,-0.9824,-0.9834,-0.9835,-0.9839,-0.9848,-0.9855,-0.9857,-0.9856,-0.9859,-0.9859,-0.9862,-0.9854,-0.9853,-0.9852,-0.9849,-0.9848,-0.9862,-0.9862,-0.9862,-0.9862,0,-0.9789,-0.9792,-0.9792,-0.9799,-0.9802,-0.9804,-0.9812,-0.9814,-0.9819,-0.9824,-0.9827,-0.9835,-0.9841,-0.9842,-0.9848,-0.9845,-0.9846,-0.9852,-0.9858,-0.985,-0.9847,-0.9846,-0.9861,-0.9861,-0.9862,-0.9862,0,0,-0.9779,-0.9788,-0.9788,-0.9791,-0.9798,-0.9801,-0.9802,-0.9807,-0.9808,-0.9814,-0.9815,-0.9821,-0.9825,-0.9829,-0.9835,-0.9835,-0.9828,-0.984,-0.984,-0.9836,-0.9823,-0.9819,-0.9817,-0.9832,-0.9831,-0.9831,-0.9822,0,-0.9774,-0.9776,-0.9782,-0.9783,-0.9785,-0.9792,-0.9793,-0.9798,-0.9803,-0.9805,-0.9811,-0.9814,-0.982,-0.9822,-0.9822,-0.9828,-0.9825,-0.9829,-0.9832,-0.9832,-0.9829,-0.9816,-0.9812,-0.9803,-0.9821,-0.9821,-0.9821,0,-0.9769,-0.9772,-0.9772,-0.9778,-0.9779,-0.978,-0.9783,-0.9786,-0.9791,-0.9794,-0.9797,-0.9804,-0.9805,-0.9811,-0.9812,-0.9815,-0.9817,-0.982,-0.9819,-0.982,-0.9826,-0.9815,-0.98,-0.9799,-0.982,-0.982,-0.982,0,-0.976,-0.9764,-0.9764,-0.9766,-0.9773,-0.9773,-0.9776,-0.9781,-0.9783,-0.9787,-0.9788,-0.9792,-0.9794,-0.9797,-0.9804,-0.9808,-0.9804,-0.9811,-0.9807,-0.9806,-0.9805,-0.9805,-0.979,-0.9808,-0.9808,-0.9808,-0.9808,0,-0.9753,-0.9753,-0.976,-0.976,-0.9759,-0.9766,-0.9765,-0.9769,-0.9773,-0.9774,-0.9781,-0.9782,-0.9791,-0.9792,-0.9798,-0.9797,-0.9799,-0.9801,-0.9803,-0.98,-0.98,-0.9801,-0.9801,-0.9807,-0.9807,-0.9807,-0.9808,0,-0.9743,-0.9748,-0.9748,-0.9754,-0.9755,-0.9754,-0.9759,-0.9759,-0.9764,-0.9764,-0.9765,-0.9772,-0.9774,-0.9781,-0.9785,-0.9789,-0.9786,-0.9789,-0.9784,-0.9785,-0.9779,-0.9779,-0.9764,-0.9762,-0.9781,-0.9781,-0.9781,0,-0.9738,-0.9738,-0.9743,-0.9743,-0.9745,-0.9746,-0.9747,-0.9753,-0.9754,-0.9759,-0.9758,-0.976,-0.9762,-0.9765,-0.9771,-0.9773,-0.9776,-0.977,-0.9777,-0.9773,-0.9774,-0.9774,-0.9773,-0.9769,-0.9769,-0.9768,-0.9768,0,-0.9729,-0.9731,-0.9732,-0.9733,-0.9734,-0.9736,-0.9738,-0.9738,-0.9745,-0.9745,-0.9747,-0.9748,-0.9751,-0.9753,-0.9756,-0.9759,-0.9764,-0.9766,-0.9765,-0.9762,-0.9758,-0.9759,-0.9779,-0.9766,-0.9767,-0.9767,-0.9767,-0.9767,-0.9721,-0.972,-0.9722,-0.9723,-0.9724,-0.9726,-0.9725,-0.9729,-0.9729,-0.9731,-0.9735,-0.9735,-0.9739,-0.9743,-0.9746,-0.9746,-0.9749,-0.9748,-0.9748,-0.9747,-0.9745,-0.9759,-0.9747,-0.9747,-0.9747,-0.9747,-0.9747,0,-0.9711,-0.9712,-0.9712,-0.9714,-0.9714,-0.9718,-0.972,-0.9719,-0.9719,-0.9722,-0.9723,-0.9723,-0.9724,-0.9729,-0.973,-0.973,-0.9732,-0.973,-0.973,-0.973,-0.9743,-0.9743,-0.9728,-0.9728,-0.9728,-0.9728,-0.9728,-0.9728,-0.9706,-0.9704,-0.9705,-0.9704,-0.9705,-0.9704,-0.9705,-0.9706,-0.9707,-0.9707,-0.9707,-0.971,-0.9713,-0.9714,-0.9715,-0.9717,-0.9716,-0.9713,-0.9715,-0.9727,-0.9729,-0.9731,-0.9731,-0.9713,-0.9713,-0.9702,-0.9701,-0.9701]}]]